Weather History for Milwaukee Timmerman, WI

Change the Weather History Date:

Monday, March 11, 2013

  Actual Average Record
Temperature  
Mean Temperature 34 °F -  
Max Temperature 37 °F 42 °F 67 °F (1973)
Min Temperature 32 °F 25 °F 6 °F (1984)
Degree Days  
Heating Degree Days 30    
Moisture  
Dew Point 33 °F    
Average Humidity 95    
Maximum Humidity 100    
Minimum Humidity 87    
Precipitation  
Precipitation 0.01 in - - ()
Sea Level Pressure  
Sea Level Pressure 29.61 in    
Wind  
Wind Speed 4 mph (West)    
Max Wind Speed 15 mph    
Max Gust Speed 24 mph    
Visibility 4 miles    
Events Fog , Rain , Snow    
Averages and records for this station are not official NWS values.
T = Trace of Precipitation, MM = Missing Value Source: NWS Daily Summary

Daily Weather History Graph

Daily Weather History Graph

Search for Another Location

Airport:

Trip Planner

Search our weather history database for the weather conditions in past years. The results will help you decide how hot, cold, wet, or windy it might be!

Date:

Astronomy

Mar. 11, 2013 Rise Set
Actual Time 7:10 AM CDT 6:53 PM CDT
Civil Twilight 6:42 AM CDT 7:22 PM CDT
Nautical Twilight 6:09 AM CDT 7:55 PM CDT
Astronomical Twilight 5:36 AM CDT 8:28 PM CDT
Moon 6:43 AM CDT (3/11) 7:07 PM CDT (3/11)
Length of Visible Light 12h 39m
Length of Day
11h 43m
Waning Crescent, 0% of the Moon is Illuminated
Mar 11
Waning Crescent
Mar 11
New
Mar 19
First Quarter
Mar 27
Full
Apr 2
Last Quarter

Hourly Weather History & Observations

Time (CDT) Temp. Windchill Dew Point Humidity Pressure Visibility Wind Dir Wind Speed Gust Speed Precip Events Conditions
12:15 AM 35.6 °F - 33.8 °F 93% 29.63 in 0.5 mi Calm Calm - N/A Rain Light Rain
12:35 AM 35.6 °F - 35.6 °F 100% 29.62 in 0.5 mi Calm Calm - N/A Fog Fog
12:55 AM 33.8 °F - 33.8 °F 100% 29.61 in 0.5 mi Calm Calm - N/A Fog Fog
1:15 AM 33.8 °F - 33.8 °F 100% 29.61 in 0.5 mi Calm Calm - N/A Fog Fog
1:35 AM 35.6 °F - 33.8 °F 93% 29.61 in 0.5 mi Calm Calm - N/A Fog Fog
1:55 AM 33.8 °F - 33.8 °F 100% 29.61 in 0.5 mi Calm Calm - N/A   Drizzle
2:15 AM 33.8 °F - 33.8 °F 100% 29.61 in 0.5 mi Calm Calm - 0.01 in   Light Drizzle
2:35 AM 35.6 °F - 33.8 °F 93% 29.60 in 0.8 mi Calm Calm - 0.01 in   Overcast
2:55 AM 33.8 °F - 33.8 °F 100% 29.59 in 0.5 mi Calm Calm - 0.01 in Fog Fog
3:15 AM 35.6 °F - 35.6 °F 100% 29.58 in 0.8 mi Calm Calm - N/A   Overcast
3:55 AM 37.4 °F 32.8 °F 37.4 °F 100% 29.57 in 1.0 mi SSW 5.8 mph - N/A   Overcast
4:15 AM 37.4 °F 32.1 °F 37.4 °F 100% 29.57 in 1.8 mi SW 6.9 mph - N/A   Overcast
4:35 AM 37.4 °F 30.3 °F 37.4 °F 100% 29.58 in 3.0 mi SW 10.4 mph 16.1 mph N/A   Overcast
4:55 AM 37.4 °F 30.8 °F 35.6 °F 93% 29.58 in 4.0 mi SW 9.2 mph - N/A   Overcast
5:15 AM 37.4 °F 30.8 °F 35.6 °F 93% 29.58 in 4.0 mi SW 9.2 mph - N/A   Overcast
5:35 AM 35.6 °F 28.0 °F 35.6 °F 100% 29.57 in 5.0 mi WSW 10.4 mph - N/A   Overcast
5:55 AM 35.6 °F 29.2 °F 35.6 °F 100% 29.56 in 1.0 mi West 8.1 mph - N/A   Overcast
6:15 AM 35.6 °F 30.7 °F 33.8 °F 93% 29.57 in 1.8 mi SW 5.8 mph - N/A   Overcast
6:35 AM 35.6 °F 29.2 °F 33.8 °F 93% 29.59 in 0.8 mi West 8.1 mph - N/A   Overcast
6:45 AM 35.6 °F 28.6 °F 35.6 °F 100% 29.60 in 1.5 mi West 9.2 mph - N/A   Overcast
6:55 AM 33.8 °F 27.7 °F 33.8 °F 100% 29.61 in 5.0 mi WSW 6.9 mph - N/A   Overcast
7:12 AM 35.6 °F 28.6 °F 33.8 °F 93% 29.61 in 10.0 mi West 9.2 mph - N/A   Overcast
7:45 AM 33.8 °F 28.6 °F 33.8 °F 100% 29.62 in 10.0 mi West 5.8 mph - N/A   Overcast
8:45 AM 33.8 °F - 33.8 °F 100% 29.61 in 7.0 mi Calm Calm - N/A   Overcast
9:45 AM 33.8 °F 28.6 °F 33.8 °F 100% 29.58 in 3.0 mi NW 5.8 mph - N/A Rain Light Rain
10:45 AM 35.6 °F - 33.8 °F 93% 29.56 in 10.0 mi Calm Calm - N/A   Overcast
12:45 PM 35.6 °F - 33.8 °F 93% 29.54 in 10.0 mi Calm Calm - N/A   Overcast
1:45 PM 35.6 °F - 33.8 °F 93% 29.54 in 5.0 mi Calm Calm - N/A   Drizzle
2:45 PM 33.8 °F 28.6 °F 32.0 °F 93% 29.51 in 2.0 mi West 5.8 mph - N/A   Overcast
3:45 PM 33.8 °F 26.4 °F 32.0 °F 93% 29.52 in 2.0 mi West 9.2 mph - N/A   Light Drizzle
4:45 PM 33.8 °F 27.0 °F 32.0 °F 93% 29.54 in 3.0 mi West 8.1 mph - N/A   Drizzle
6:50 PM 33.8 °F 27.0 °F 32.0 °F 93% 29.61 in 5.0 mi West 8.1 mph - N/A Snow Light Snow
7:45 PM 33.8 °F 27.0 °F 30.2 °F 87% 29.63 in 5.0 mi West 8.1 mph - N/A Snow Light Snow
8:45 PM 32.0 °F 23.6 °F 30.2 °F 93% 29.66 in 5.0 mi West 10.4 mph - N/A Snow Light Snow
9:15 PM 32.0 °F 23.0 °F 30.2 °F 93% 29.66 in 5.0 mi West 11.5 mph - N/A Snow Light Snow
9:35 PM 32.0 °F 23.6 °F 30.2 °F 93% 29.67 in 7.0 mi West 10.4 mph - N/A Snow Light Snow
9:55 PM 32.0 °F 23.0 °F 28.4 °F 87% 29.67 in 10.0 mi West 11.5 mph 19.6 mph N/A Snow Light Snow
10:15 PM 32.0 °F 23.0 °F 28.4 °F 87% 29.69 in 10.0 mi West 11.5 mph 19.6 mph N/A   Overcast
10:35 PM 32.0 °F 22.5 °F 28.4 °F 87% 29.69 in 10.0 mi West 12.7 mph - N/A Snow Light Snow
10:55 PM 32.0 °F 21.6 °F 28.4 °F 87% 29.69 in 10.0 mi West 15.0 mph - N/A Snow Light Snow
11:15 PM 32.0 °F 22.5 °F 28.4 °F 87% 29.71 in 10.0 mi West 12.7 mph 20.7 mph N/A   Overcast
11:35 PM 32.0 °F 23.6 °F 28.4 °F 87% 29.72 in 10.0 mi West 10.4 mph 18.4 mph N/A   Overcast
11:55 PM 32.0 °F 21.6 °F 28.4 °F 87% 29.72 in 10.0 mi West 15.0 mph 24.2 mph N/A   Overcast